Nellis AFB, NV

1:38 PM PST on December 09, 2019 (GMT -0800)
Nellis Air Force Base

Weather History for KLSV - October, 2019

Change the Weather History Date:

Tuesday, October 8, 2019

  Actual Average Record
Temperature  
Mean Temperature 72 °F -  
Max Temperature 91 °F 85 °F 98 °F (1996)
Min Temperature 54 °F 57 °F 50 °F (2007)
Cooling Degree Days 6    
Growing Degree Days 22 (Base 50)    
Moisture  
Dew Point 18 °F    
Average Humidity 13    
Maximum Humidity 21    
Minimum Humidity 7    
Precipitation  
Precipitation 0.00 in - - ()
Sea Level Pressure  
Sea Level Pressure 29.77 in    
Wind  
Wind Speed 3 mph (NE)    
Max Wind Speed 12 mph    
Max Gust Speed -    
Visibility 10 miles    
Events      
Averages and records for this station are not official NWS values.
T = Trace of Precipitation, MM = Missing Value Source: NWS Daily Summary

Daily Weather History Graph

Daily Weather History Graph

Search for Another Location

Airport or City:

Astronomy

Oct. 08, 2019 Rise Set
Actual Time 6:40 AM PDT 6:13 PM PDT
Civil Twilight 6:15 AM PDT 6:39 PM PDT
Nautical Twilight 5:45 AM PDT 7:09 PM PDT
Astronomical Twilight 5:15 AM PDT 7:39 PM PDT
Moon 4:04 PM PDT (10/8) 1:45 AM PDT (10/8)
Length of Visible Light 12h 24m
Length of Day
11h 32m
Waxing Gibbous, 78% of the Moon is Illuminated
Oct 8
Waxing Gibbous
Oct 13
Full
Oct 21
Last Quarter
Oct 27
New
Nov 4
First Quarter

Hourly Weather History & Observations

Time (PDT) Temp. Dew Point Humidity Pressure Visibility Wind Dir Wind Speed Gust Speed Precip Events Conditions
12:55 AM 59.9 °F 13.6 °F 16% 29.84 in 10.0 mi Calm Calm - N/A   Clear
1:55 AM 60.8 °F 14.4 °F 16% 29.84 in 10.0 mi Variable 6.9 mph - N/A   Clear
2:55 AM 61.3 °F 16.2 °F 17% 29.82 in 10.0 mi North 4.6 mph - N/A   Clear
3:55 AM 60.1 °F 16.3 °F 18% 29.82 in 10.0 mi Variable 3.5 mph - N/A   Clear
4:54 AM 58.3 °F 16.2 °F 19% 29.83 in 10.0 mi Calm Calm - N/A   Clear
7:07 AM 54.9 °F 15.6 °F 21% 29.85 in 10.0 mi North 3.5 mph - N/A   Clear
7:58 AM 58.6 °F 16.5 °F 19% 29.86 in 10.0 mi Calm Calm - N/A   Clear
8:58 AM 65.1 °F 19.2 °F 17% 29.86 in 10.0 mi Calm Calm - N/A   Clear
9:58 AM 71.4 °F 19.8 °F 14% 29.87 in 10.0 mi Calm Calm - N/A   Clear
10:58 AM 77.5 °F 18.9 °F 11% 29.84 in 10.0 mi Calm Calm - N/A   Clear
11:58 AM 82.2 °F 17.8 °F 9% 29.82 in 10.0 mi Calm Calm - N/A   Clear
12:58 PM 84.0 °F 19.0 °F 9% 29.78 in 10.0 mi Calm Calm - N/A   Clear
2:58 PM 87.6 °F 19.0 °F 8% 29.73 in 10.0 mi Calm Calm - N/A   Clear
3:58 PM 89.1 °F 16.9 °F 7% 29.70 in 10.0 mi ESE 3.5 mph - N/A   Clear
4:58 PM 89.2 °F 17.1 °F 7% 29.69 in 10.0 mi ESE 3.5 mph - N/A   Clear
5:58 PM 86.7 °F 18.3 °F 8% 29.68 in 10.0 mi East 8.1 mph - N/A   Clear
6:58 PM 84.0 °F 19.0 °F 9% 29.68 in 10.0 mi East 11.5 mph - N/A   Clear
8:58 PM 77.7 °F 21.0 °F 12% 29.68 in 10.0 mi North 3.5 mph - N/A   Clear
9:58 PM 72.5 °F 20.7 °F 14% 29.67 in 10.0 mi NNW 8.1 mph - N/A   Clear
10:58 PM 71.4 °F 21.4 °F 15% 29.67 in 10.0 mi NNE 3.5 mph - N/A   Clear
11:58 PM 70.7 °F 22.3 °F 16% 29.64 in 10.0 mi North 6.9 mph - N/A   Clear